Regional Weather Roundup
Issued by NWS

Home | Current Version | Previous Version | Text Only | Print | Product List | Glossary On
Versions: 1 2 3 4 5 6 7 8 9 10 11 12 13 14 15 16 17 18 19 20 21 22 23 24 25 26 27 28 29 30 31 32 33 34 35 36 37 38 39 40 41 42 43 44 45 46 47 48 49 50
000
ASUS43 KDTX 290101
RWRMI
MICHIGAN HOURLY REGIONAL WEATHER ROUNDUP
NATIONAL WEATHER SERVICE DETROIT/PONTIAC MI
800 PM EST SUN DEC 28 2014

NOTE: "FAIR" INDICATES FEW OR NO CLOUDS BELOW 12,000 FEET WITH NO
SIGNIFICANT WEATHER AND/OR OBSTRUCTION TO VISIBILITY.

MIZ047>049-052>055-059>063-066>070-074>076-081>083-290200-
SOUTHEAST LOWER MICHIGAN

CITY           SKY/WX    TMP DP  RH WIND       PRES   REMARKS
ADRIAN         CLEAR     29  23  78 W5        30.17R WCI  24
ALMA           CLEAR     26  21  80 W5        30.16R WCI  21
ANN ARBOR      CLEAR     26  21  81 CALM      30.16R
BAD AXE        CLOUDY    30  23  75 W8        30.12S WCI  22
CARO           CLEAR     28  23  81 W5        30.13R WCI  23
DETROIT CITY   CLEAR     32  20  61 W3        30.16R
DETROIT        CLEAR     30  22  72 W5        30.17R WCI  25
FLINT          PTCLDY    30  21  69 W7        30.15R WCI  23
GROSSE ILE     CLEAR     30  25  80 CALM      30.15R
HILLSDALE      CLEAR     27  22  81 W6        30.15R WCI  21
HOWELL         CLEAR     27  22  79 W5        30.14R WCI  22

CITY           SKY/WX    TMP DP  RH WIND       PRES   REMARKS
JACKSON        CLEAR     28  20  71 W6        30.16R WCI  22
LAMBERTVILLE   CLEAR     32  27  80 W3        30.18R
LANSING        CLEAR     28  21  75 W7        30.16R WCI  21
LAPEER         MOCLDY    28  22  78 W3        30.14R
MASON          CLEAR     28  20  74 CALM      30.16R
MONROE         CLEAR     28  25  86 CALM      30.15R
MT. CLEMENS    PTCLDY    30  19  63 W5        30.12R WCI  26
PONTIAC        PTCLDY    28  21  75 W5        30.13R WCI  23
PORT HOPE        N/A     32  19  58 W8        30.10R WCI  25
PORT HURON     CLEAR     28  23  80 CALM      30.14S
TRI CITIES     PTCLDY    28  20  71 W6        30.15R WCI  22
TROY           CLEAR     32  21  64 W3        30.17R
SAGINAW HB     PTCLDY    30  25  80 W6        30.14R WCI  24
$$
MIZ043>046-050>051-056>058-064>065-071>073-077>080-290200-
SOUTHWEST LOWER MICHIGAN

CITY           SKY/WX    TMP DP  RH WIND       PRES   REMARKS
BATTLE CREEK   CLEAR     27  19  72 W7        30.18R WCI  19
BENTON HARBOR  CLEAR     25  20  81 CALM      30.20R
BIG RAPIDS     MOCLDY    27  20  73 NW6       30.15R WCI  21
COLDWATER      CLEAR     27  21  79 W5        30.17R WCI  22
FREMONT        CLOUDY    27  21  79 NW3       30.18R
HOLLAND        CLOUDY    33  22  63 VRB6      30.19R WCI  28
GRAND RAPIDS   CLOUDY    30  21  69 W7        30.18R WCI  23
IONIA          FAIR      29  22  74 W8        30.16R WCI  21
KALAMAZOO      CLEAR     27  19  72 W6        30.19R WCI  20
MARSHALL       CLEAR     23  19  81 W6        30.17R WCI  16
MOUNT PLEASANT PTCLDY    28  19  68 CALM      30.14S
MUSKEGON       CLOUDY    31  20  63 N8        30.19R WCI  23
SOUTH HAVEN    CLOUDY    32  22  67 NW3       30.19S
$$
MIZ016>042-290200-
NORTHERN LOWER MICHIGAN

CITY           SKY/WX    TMP DP  RH WIND       PRES   REMARKS
ALPENA         CLOUDY    26  14  60 NW7       30.12R WCI  18
BEAVER ISLAND  MOCLDY    21  12  68 NW12G20   30.17R WCI   9
BELLAIRE       CLOUDY    28  13  52 W5        30.16R WCI  23
CADILLAC       CLOUDY    24  15  69 NW9       30.12R WCI  14
CHARLEVOIX     FLURRIES  25  18  74 NW16G22   30.18R WCI  12
FRANKFORT      CLOUDY    27  18  67 NW9       30.18R WCI  18
GAYLORD        CLOUDY    23  14  68 NW8       30.09R WCI  14
GRAYLING       CLOUDY    26  17  68 W7        30.12R WCI  18
HARBOR SPRINGS FLURRIES  24  17  74 NW13G18   30.14R WCI  12
HOUGHTON LAKE  CLOUDY    26  15  63 NW9       30.12R WCI  17
MANISTEE       CLOUDY    28  12  50 NW14      30.19R WCI  17
OSCODA         CLOUDY    29  15  55 NW15      30.12R WCI  18
PELLSTON       LGT SNOW  23  15  71 NW14G22   30.15R WCI  11
ROGERS CITY    CLOUDY    24  21  87 NW8       30.14R WCI  15
TRAVERSE CITY  CLOUDY    27  15  61 W9        30.16R WCI  18
$$
MIZ007>008-015-290200-
EASTERN UPPER MICHIGAN

CITY           SKY/WX    TMP DP  RH WIND       PRES   REMARKS
KINROSS        CLOUDY    19  16  86 W12       30.12R WCI   7
MACKINAC ISLAN CLOUDY    22  14  72 NW16G24   30.13R WCI   8
NEWBERRY       CLOUDY    16  14  93 W8        30.14R WCI   5
S. S. MARIE    LGT SNOW  20  15  81 NW12      30.09R WCI   8
MUNISING         N/A     19   8  62 W8        30.18R WCI   9
$$
MIZ004>006-011>014-085-290200-
CENTRAL UPPER MICHIGAN

CITY           SKY/WX    TMP DP  RH WIND       PRES   REMARKS
MANISTIQUE     PTCLDY    14  10  84 NW7       30.18R WCI   4
ESCANABA       CLEAR     16   7  67 NW7       30.21R WCI   6
MENOMINEE      CLOUDY    21  12  68 NW6       30.21R WCI  14
SAWYER-GWINN   CLEAR      7   3  85 CALM      30.16R
$$
MIZ001>003-009>011-084-290200-
WESTERN UPPER MICHIGAN

CITY           SKY/WX    TMP DP  RH WIND       PRES   REMARKS
IRON MOUNTAIN    N/A      6   2  83 NW6       30.18R WCI  -4
HOUGHTON       CLOUDY    15   7  70 W13       30.17R WCI   1
COPPER HARBOR    N/A     19  12  74 N23G29    30.18R WCI   2
IRONWOOD       CLOUDY    10   5  79 W9        30.20R WCI  -2
$$

ABBREVIATIONS USED IN REMARKS
   TC - TEMPERATURE IN CELSIUS
  WCI - WIND CHILL INDEX
   HX - HEAT INDEX
  VSB - VISIBILITY




USA.gov is the U.S. government's official web portal to all federal, state and local government web resources and services.